{"data":{"norad_id":67612,"epoch":"2026-05-25T03:06:54.808992Z","epoch_age_seconds":63816,"freshness":"FRESH","line1":"1 67612U 26018Z   26145.12980103  .00011498  00000+0  35788-3 0  9997","line2":"2 67612  97.2850 210.3331 0000398 114.1920 245.9364 15.33449797 19102","mean_motion":15.33449797,"eccentricity":3.98e-5,"inclination_deg":97.285,"raan_deg":210.3331,"arg_perigee_deg":114.192,"mean_anomaly_deg":245.9364,"bstar":0.00035788,"rev_number":1910,"period_min":93.905910895627,"perigee_km":465.25652411542,"apogee_km":465.80127992122,"semimajor_km":6843.6659020183,"source":"CELESTRAK","updated_at":"2026-05-25T13:38:21.648299Z"}}